sat.trackr.live / text

‹ back to catalog

STARLINK-3155

NORAD 49739 · 2021-115R

PAYLOAD ACTIVE UNKNOWN

§ Identity

Operator
Country
US
Launch date
2021-12-02
Launch site
AFETR
Launch vehicle
Mass (kg)
RCS (m²)

Purposes: comms

External: N2YO · Heavens-Above · Gunter

§ Orbital elements

Epoch: 2026-09-19T22:09:20.803680Z

Period
93.63 min
Inclination
53.1603°
Eccentricity
0.0003348
Mean motion
15.38035116 rev/d
Perigee alt
449.6 km
Apogee alt
454.2 km
Semi-major
6,830.1 km
B*
8.1516e-4
RAAN
353.6992°
Arg perigee
6.5954°
Mean anomaly
353.5094°
Rev number
26,489

§ Raw data

STARLINK-31551 49739U 21115R   26262.92315745  .00030694  00000+0  81516-3 0  99912 49739  53.1603 353.6992 0003348   6.5954 353.5094 15.38035116264897

JSON: /api/v1/satellites/49739 · /tle

For live sub-satellite position, see the globe view (requires WebGL).

§ Visibility from observer

Set your observer location to see the next 7 days of passes ≥ 10°. The values pass through the URL so the page stays shareable.

No JS? Fill the form by hand. The geolocation button needs JavaScript.